Big Lake, AK

7:03 PM AKDT on July 24, 2016 (GMT -0800)
Wasilla

Weather History for PAWS - September, 2013

Change the Weather History Date:

Tuesday, September 17, 2013

  Actual Average Record
Temperature  
Mean Temperature 46 °F -  
Max Temperature 50 °F 58 °F 68 °F (1969)
Min Temperature 42 °F 39 °F 20 °F (1972)
Degree Days  
Heating Degree Days 19    
Moisture  
Dew Point 38 °F    
Average Humidity 72    
Maximum Humidity 87    
Minimum Humidity 62    
Precipitation  
Precipitation 0.00 in - - ()
Sea Level Pressure  
Sea Level Pressure 29.48 in    
Wind  
Wind Speed 3 mph (ENE)    
Max Wind Speed 10 mph    
Max Gust Speed -    
Averages and records for this station are not official NWS values.
T = Trace of Precipitation, MM = Missing Value Source: NWS Daily Summary

Daily Weather History Graph

Daily Weather History Graph

Search for Another Location

Airport or City:

Trip Planner

Search our weather history database for the weather conditions in past years. The results will help you decide how hot, cold, wet, or windy it might be!

Date:

Astronomy

Sep. 17, 2013 Rise Set
Actual Time 7:30 AM AKDT 8:12 PM AKDT
Civil Twilight 6:46 AM AKDT 8:56 PM AKDT
Nautical Twilight 5:51 AM AKDT 9:50 PM AKDT
Astronomical Twilight 4:49 AM AKDT 10:52 PM AKDT
Moon 7:15 PM AKDT (9/17) 5:15 AM AKDT (9/17)
Length of Visible Light 14h 10m
Length of Day
12h 42m
Waxing Gibbous, 96% of the Moon is Illuminated
Sep 17
Waxing Gibbous
Sep 19
Full
Sep 26
Last Quarter
Oct 4
New
Oct 11
First Quarter

Hourly Weather History & Observations

Time (AKDT) Temp. Windchill Dew Point Humidity Pressure Visibility Wind Dir Wind Speed Gust Speed Precip Events Conditions
12:16 AM 46.4 °F - 39.2 °F 76% 29.50 in - Calm Calm - N/A   Overcast
12:36 AM 46.4 °F - 39.2 °F 76% 29.50 in - Calm Calm - N/A   Overcast
12:56 AM 46.4 °F - 39.2 °F 76% 29.50 in - Calm Calm - N/A   Overcast
1:16 AM 46.4 °F - 39.2 °F 76% 29.49 in - Calm Calm - N/A   Overcast
1:36 AM 46.4 °F - 39.2 °F 76% 29.49 in - Calm Calm - N/A   Overcast
1:56 AM 44.6 °F 43.1 °F 39.2 °F 81% 29.49 in - NNE 3.5 mph - N/A   Overcast
2:16 AM 44.6 °F 43.1 °F 39.2 °F 81% 29.48 in - NE 3.5 mph - N/A   Overcast
2:36 AM 48.2 °F - 37.4 °F 66% 29.48 in - ENE 6.9 mph - N/A   Overcast
2:56 AM 48.2 °F - 37.4 °F 66% 29.48 in - ENE 5.8 mph - N/A   Overcast
3:16 AM 46.4 °F 45.2 °F 39.2 °F 76% 29.48 in - East 3.5 mph - N/A   Overcast
3:36 AM 46.4 °F - 39.2 °F 76% 29.47 in - Calm Calm - N/A   Overcast
3:56 AM 46.4 °F 44.3 °F 37.4 °F 71% 29.47 in - East 4.6 mph - N/A   Overcast
4:16 AM 48.2 °F - 35.6 °F 62% 29.47 in - ENE 5.8 mph - N/A   Overcast
4:36 AM 48.2 °F - 35.6 °F 62% 29.47 in - ENE 6.9 mph - N/A   Overcast
4:56 AM 48.2 °F - 35.6 °F 62% 29.47 in - ENE 4.6 mph - N/A   Overcast
5:16 AM 46.4 °F 44.3 °F 35.6 °F 66% 29.47 in - East 4.6 mph - N/A   Overcast
5:36 AM 46.4 °F - 37.4 °F 71% 29.47 in - Calm Calm - N/A   Overcast
5:56 AM 44.6 °F - 37.4 °F 76% 29.47 in - Calm Calm - N/A   Overcast
6:16 AM 44.6 °F - 37.4 °F 76% 29.47 in - Calm Calm - N/A   Overcast
6:36 AM 44.6 °F - 39.2 °F 81% 29.47 in - Calm Calm - N/A   Overcast
6:56 AM 44.6 °F - 39.2 °F 81% 29.47 in - Calm Calm - N/A   Overcast
7:16 AM 44.6 °F - 39.2 °F 81% 29.47 in - Calm Calm - N/A   Overcast
7:36 AM 42.8 °F - 39.2 °F 87% 29.47 in - Calm Calm - N/A   Overcast
7:56 AM 44.6 °F 43.1 °F 39.2 °F 81% 29.47 in - East 3.5 mph - N/A   Overcast
8:16 AM 44.6 °F 43.1 °F 37.4 °F 76% 29.47 in - East 3.5 mph - N/A   Overcast
8:36 AM 44.6 °F 43.1 °F 37.4 °F 76% 29.47 in - ENE 3.5 mph - N/A   Overcast
8:56 AM 44.6 °F 42.2 °F 37.4 °F 76% 29.47 in - ENE 4.6 mph - N/A   Overcast
9:16 AM 44.6 °F 40.7 °F 35.6 °F 71% 29.47 in - ENE 6.9 mph - N/A   Overcast
9:36 AM 46.4 °F 44.3 °F 35.6 °F 66% 29.47 in - ENE 4.6 mph - N/A   Overcast
9:56 AM 46.4 °F 41.9 °F 35.6 °F 66% 29.47 in - ENE 9.2 mph - N/A   Overcast
10:16 AM 46.4 °F 42.9 °F 35.6 °F 66% 29.47 in - ENE 6.9 mph - N/A   Overcast
10:36 AM 46.4 °F 43.5 °F 35.6 °F 66% 29.47 in - ENE 5.8 mph - N/A   Overcast
10:56 AM 46.4 °F 44.3 °F 35.6 °F 66% 29.47 in - NE 4.6 mph - N/A   Overcast
11:16 AM 46.4 °F 43.5 °F 35.6 °F 66% 29.47 in - ENE 5.8 mph - N/A   Overcast
11:36 AM 46.4 °F 43.5 °F 37.4 °F 71% 29.47 in - ENE 5.8 mph - N/A   Overcast
11:56 AM 48.2 °F - 37.4 °F 66% 29.48 in - ENE 10.4 mph - N/A   Overcast
12:16 PM 48.2 °F - 37.4 °F 66% 29.48 in - ENE 8.1 mph - N/A   Overcast
12:36 PM 48.2 °F - 37.4 °F 66% 29.48 in - East 4.6 mph - N/A   Overcast
12:56 PM 48.2 °F - 37.4 °F 66% 29.48 in - East 6.9 mph - N/A   Overcast
1:16 PM 48.2 °F - 37.4 °F 66% 29.48 in - ENE 5.8 mph - N/A   Overcast
1:36 PM 48.2 °F - 37.4 °F 66% 29.48 in - East 5.8 mph - N/A   Overcast
1:56 PM 48.2 °F - 37.4 °F 66% 29.47 in - ENE 6.9 mph - N/A   Overcast
2:16 PM 48.2 °F - 37.4 °F 66% 29.47 in - ENE 5.8 mph - N/A   Overcast
2:36 PM 48.2 °F - 37.4 °F 66% 29.47 in - ENE 4.6 mph - N/A   Overcast
2:56 PM 48.2 °F - 37.4 °F 66% 29.47 in - ENE 5.8 mph - N/A   Overcast
3:16 PM 50.0 °F - 37.4 °F 62% 29.47 in - ENE 6.9 mph - N/A   Overcast
3:36 PM 48.2 °F - 37.4 °F 66% 29.47 in - NE 6.9 mph - N/A   Mostly Cloudy
3:56 PM 50.0 °F - 37.4 °F 62% 29.47 in - ENE 6.9 mph - N/A   Mostly Cloudy
4:16 PM 48.2 °F - 37.4 °F 66% 29.47 in - NE 8.1 mph - N/A   Overcast
4:36 PM 48.2 °F - 37.4 °F 66% 29.47 in - East 6.9 mph - N/A   Overcast
4:56 PM 48.2 °F - 37.4 °F 66% 29.47 in - ENE 4.6 mph - N/A   Overcast
5:16 PM 50.0 °F - 37.4 °F 62% 29.47 in - ENE 5.8 mph - N/A   Overcast
5:36 PM 50.0 °F - 37.4 °F 62% 29.47 in - ENE 5.8 mph - N/A   Overcast
5:56 PM 48.2 °F - 37.4 °F 66% 29.47 in - East 5.8 mph - N/A   Mostly Cloudy
6:16 PM 48.2 °F - 37.4 °F 66% 29.48 in - ENE 5.8 mph - N/A   Scattered Clouds
6:36 PM 48.2 °F - 37.4 °F 66% 29.48 in - ENE 6.9 mph - N/A   Partly Cloudy
6:56 PM 48.2 °F - 39.2 °F 71% 29.48 in - ENE 5.8 mph - N/A   Mostly Cloudy
7:16 PM 48.2 °F - 39.2 °F 71% 29.48 in - ENE 5.8 mph - N/A   Overcast
7:36 PM 48.2 °F - 39.2 °F 71% 29.49 in - ENE 5.8 mph - N/A   Overcast
7:56 PM 46.4 °F 43.5 °F 39.2 °F 76% 29.49 in - ENE 5.8 mph - N/A   Mostly Cloudy
8:16 PM 46.4 °F 44.3 °F 39.2 °F 76% 29.49 in - ENE 4.6 mph - N/A   Overcast
8:36 PM 46.4 °F 44.3 °F 39.2 °F 76% 29.50 in - ENE 4.6 mph - N/A   Overcast
8:56 PM 46.4 °F 43.5 °F 39.2 °F 76% 29.50 in - ENE 5.8 mph - N/A   Overcast
9:16 PM 46.4 °F 44.3 °F 39.2 °F 76% 29.50 in - East 4.6 mph - N/A   Overcast
9:36 PM 46.4 °F 45.2 °F 39.2 °F 76% 29.50 in - ENE 3.5 mph - N/A   Overcast
9:56 PM 44.6 °F - 39.2 °F 81% 29.50 in - Calm Calm - N/A   Mostly Cloudy
10:16 PM 44.6 °F - 39.2 °F 81% 29.51 in - Calm Calm - N/A   Overcast
10:36 PM 44.6 °F - 39.2 °F 81% 29.51 in - Calm Calm - N/A   Overcast
10:56 PM 42.8 °F - 39.2 °F 87% 29.51 in - Calm Calm - N/A   Overcast
11:16 PM 42.8 °F - 39.2 °F 87% 29.52 in - Calm Calm - N/A   Overcast
11:36 PM 44.6 °F - 39.2 °F 81% 29.52 in - Calm Calm - N/A   Overcast
11:56 PM 44.6 °F - 39.2 °F 81% 29.52 in - Calm Calm - N/A   Overcast